Regional Weather Roundup
Issued by NWS

Home | Current Version | Previous Version | Graphics & Text | Print | Product List | Glossary On
Versions: 1 2 3 4 5 6 7 8 9 10 11 12 13 14 15 16 17 18 19 20 21 22 23 24 25 26 27 28 29 30 31 32 33 34 35 36 37 38 39 40 41 42 43 44 45 46 47 48 49 50
000
ASUS43 KLMK 250202
RWRKY
KENTUCKY REGIONAL WEATHER ROUNDUP
NATIONAL WEATHER SERVICE LOUISVILLE KY
1000 PM EDT MON APR 24 2017

NOTE "FAIR" INDICATES FEW OR NO CLOUDS BELOW 12,000 FEET
WITH NO SIGNIFICANT WEATHER AND/OR OBSTRUCTIONS TO VISIBILITY.

KYZ001>023-026-027-061>063-070>075-250300-
WESTERN AND SOUTH CENTRAL KENTUCKY

CITY           SKY/WX    TMP DP  RH WIND       PRES   REMARKS
PADUCAH        CLEAR     61  54  77 CALM      29.73S
HENDERSON      NOT AVBL
OWENSBORO      NOT AVBL
HOPKINSVILLE   CLEAR     62  55  76 SW5       29.76R
BOWLING GREEN  MOCLDY    63  56  78 CALM      29.76S
GLASGOW        NOT AVBL
$$

KYZ024-025-028>034-038-045-046-053-250300-
NORTH CENTRAL KENTUCKY

CITY           SKY/WX    TMP DP  RH WIND       PRES   REMARKS
LOUISVILLE/SDF MOCLDY    66  53  63 SE7       29.77S
LOUISVILLE/LOU MOCLDY    66  54  65 E6        29.78R
FORT KNOX      MOCLDY    64  53  66 E8        29.76S
$$

KYZ035>037-039>044-047>052-055>060-089>105-250300-
NORTHEAST KENTUCKY

CITY           SKY/WX    TMP DP  RH WIND       PRES   REMARKS
LEXINGTON      CLOUDY    63  51  65 E13       29.80F
COVINGTON      CLOUDY    63  52  67 E15       29.81S
FRANKFORT      CLOUDY    64  51  62 E7        29.79R
$$

KYZ054-064>069-076>088-106>120-250300-
SOUTHEAST KENTUCKY

CITY           SKY/WX    TMP DP  RH WIND       PRES   REMARKS
JACKSON        MOCLDY    59  51  75 CALM      29.82R
LONDON         MOCLDY    60  51  72 N5        29.78S
SOMERSET       CLOUDY    61  52  72 E3        29.79S
MIDDLESBORO    CLOUDY    62  54  73 CALM      29.79S
MONTICELLO     CLOUDY    61  58  90 W7        29.79S
$$





USA.gov is the U.S. government's official web portal to all federal, state and local government web resources and services.